Weather Roundup
Issued by NWS Chicago, IL

Home | Current Version | Previous Version | Text Only | Print | Product List | Glossary Off
Versions: 1 2 3 4 5 6 7 8 9 10 11 12 13 14 15 16 17 18 19 20 21 22 23 24 25 26 27 28 29 30 31 32 33 34 35 36 37 38 39 40 41 42 43 44 45 46 47 48 49 50

000
NZUS59 KLOT 200412
HRRLOT

CHICAGO AREA WEATHER ROUNDUP
NATIONAL WEATHER SERVICE CHICAGO/ROMEOVILLE IL
1000 PM CST SUN FEB 19 2017

NOTE: "FAIR" INDICATES FEW OR NO CLOUDS BELOW 12,000 FEET WITH NO
SIGNIFICANT WEATHER AND/OR OBSTRUCTIONS TO VISIBILITY.

* THESE STATIONS ARE NOT UNDER NWS QUALITY CONTROL. THEY ALSO MAY NOT
  REPORT WEATHER SUCH AS PRECIPITATION OR FOG.

ILZ005-006-012>014-019>023-200500-
NORTHEAST ILLINOIS

CITY           SKY/WX    TMP DP  RH WIND       PRES   REMARKS
OHARE          MOCLDY    47  29  49 CALM      30.09R
MIDWAY         CLOUDY    49  31  49 E6        30.09S
AURORA         CLOUDY    48  41  76 SE6       30.09R
LANSING*       CLOUDY    46  41  83 CALM      30.11S
JOLIET*        PTCLDY    53  44  72 S3        30.10R
WAUKEGAN       CLOUDY    34  30  85 E5        30.10R WCI  30
DUPAGE AIRPORT CLOUDY    47  36  65 SE3       30.08R
WHEELING       PTCLDY    41  31  67 CALM      30.11R
KANKAKEE*      CLOUDY    48  40  73 CALM      30.11R
MORRIS*        CLOUDY    52  42  69 CALM      30.08R
LEWIS AIRPORT* CLOUDY    49  44  84 SE7       30.09S
NORTHERLY ISL    N/A     42  31  65 CALM        N/A
$$

WIZ051-052-058>065-066-070>072-200500-
SOUTHEAST WISCONSIN

CITY           SKY/WX    TMP DP  RH WIND       PRES   REMARKS
MILWAUKEE      CLOUDY    39  32  76 NE3       30.12R
KENOSHA*       PTCLDY    34  29  82 E6        30.11R WCI  29
RACINE*        PTCLDY    38  32  79 SE3       30.13R
WAUKESHA         N/A     36  30  80 CALM      30.12R
WEST BEND      CLOUDY    32  30  93 CALM      30.11S
$$

INZ001>003-010>013-019-020-200500-
NORTHWEST INDIANA

CITY           SKY/WX    TMP DP  RH WIND       PRES   REMARKS
GARY*          CLOUDY    40  35  80 SE3       30.11S
MICHIGAN CITY* NOT AVBL
RENSSELAER*    NOT AVBL
VALPARAISO     CLOUDY    45  36  70 E3        30.12S
$$

LMZ740>746-200500-
SOUTHERN LAKE MICHIGAN

STATION/POSITION TIME  SKY/WX   TEMP WIND        PRES    VSBY
                                AIR  DIR/SP/G
                 (UTC)          (F)  (DEG/KT/KT) (MB)    (MI)
HARRISON CRIB    0340            45  140/  7/  8   N/A
BURNHAM HARBOR   0400            43  110/  2/  3   N/A
CALUMET HARBOR   0348            41   CALM  /  1 1018.9R
BURNS HARBOR     0340            55  140/  6/  8 1020.3R
MICHIGAN CITY    0340            52  110/  6/  7   N/A
$$

ABBREVIATIONS USED IN REMARKS
   TC - TEMPERATURE IN CELSIUS
  WCI - WIND CHILL INDEX
   HX - HEAT INDEX
  VSB - VISIBILITY
$$




USA.gov is the U.S. government's official web portal to all federal, state and local government web resources and services.